Weather History for Jackson, WY

Change the Weather History Date:

Friday, December 7, 2012

  Actual Average Record
Temperature  
Mean Temperature 26 °F -  
Max Temperature 30 °F 27 °F 46 °F (1987)
Min Temperature 21 °F 4 °F -27 °F (2005)
Degree Days  
Heating Degree Days 40    
Moisture  
Dew Point 21 °F    
Average Humidity 81    
Maximum Humidity 100    
Minimum Humidity 64    
Precipitation  
Precipitation 0.00 in - - ()
Sea Level Pressure  
Sea Level Pressure 29.88 in    
Wind  
Wind Speed 14 mph (SSW)    
Max Wind Speed 21 mph    
Max Gust Speed 25 mph    
Visibility 6 miles    
Events Snow    
Averages and records for this station are not official NWS values.
T = Trace of Precipitation, MM = Missing Value Source: NWS Daily Summary

Daily Weather History Graph

Daily Weather History Graph

Search for Another Location

Airport:

Trip Planner

Search our weather history database for the weather conditions in past years. The results will help you decide how hot, cold, wet, or windy it might be!

Date:

Astronomy

Dec. 07, 2012 Rise Set
Actual Time 7:43 AM MST 4:46 PM MST
Civil Twilight 7:10 AM MST 5:18 PM MST
Nautical Twilight 6:34 AM MST 5:54 PM MST
Astronomical Twilight 5:59 AM MST 6:29 PM MST
Moon 12:55 AM MST (12/7) 12:54 PM MST (12/7)
Length of Visible Light 10h 08m
Length of Day
9h 03m
Last Quarter, 38% of the Moon is Illuminated
Dec 7
Last Quarter
Dec 13
New
Dec 19
First Quarter
Dec 28
Full
Jan 4
Last Quarter

Hourly Weather History & Observations

Time (MST) Temp. Windchill Dew Point Humidity Pressure Visibility Wind Dir Wind Speed Gust Speed Precip Events Conditions
12:15 AM 30.2 °F 19.3 °F 24.8 °F 80% 29.89 in 10.0 mi South 15.0 mph - N/A   Overcast
12:35 AM 28.4 °F 16.6 °F 24.8 °F 86% 29.89 in 10.0 mi South 16.1 mph - N/A   Overcast
1:15 AM 28.4 °F 19.7 °F 23.0 °F 80% 29.89 in 10.0 mi South 9.2 mph - N/A   Overcast
1:35 AM 28.4 °F 15.8 °F 23.0 °F 80% 29.88 in 10.0 mi South 18.4 mph - N/A   Mostly Cloudy
1:55 AM 28.4 °F 18.5 °F 23.0 °F 80% 29.89 in 10.0 mi South 11.5 mph 18.4 mph N/A   Overcast
2:15 AM 28.4 °F 17.0 °F 23.0 °F 80% 29.90 in 7.0 mi South 15.0 mph 21.9 mph N/A   Overcast
2:35 AM 28.4 °F 19.7 °F 23.0 °F 80% 29.90 in 8.0 mi SSW 9.2 mph 18.4 mph N/A   Overcast
2:55 AM 28.4 °F 18.5 °F 23.0 °F 80% 29.91 in 5.0 mi SSW 11.5 mph 17.3 mph N/A   Overcast
3:15 AM 28.4 °F 17.5 °F 23.0 °F 80% 29.90 in 6.0 mi SSW 13.8 mph 19.6 mph N/A   Overcast
3:35 AM 28.4 °F 19.1 °F 23.0 °F 80% 29.90 in 8.0 mi SSW 10.4 mph 19.6 mph N/A   Overcast
3:55 AM 28.4 °F 15.8 °F 21.2 °F 74% 29.89 in 5.0 mi SW 18.4 mph 23.0 mph N/A   Mostly Cloudy
4:15 AM 28.4 °F 17.5 °F 21.2 °F 74% 29.89 in 4.0 mi SW 13.8 mph 24.2 mph N/A   Overcast
4:35 AM 28.4 °F 15.8 °F 19.4 °F 69% 29.89 in 7.0 mi SW 18.4 mph 25.3 mph N/A   Overcast
4:55 AM 28.4 °F 19.1 °F 19.4 °F 69% 29.90 in 7.0 mi SW 10.4 mph 19.6 mph N/A   Overcast
5:15 AM 28.4 °F 17.5 °F 19.4 °F 69% 29.90 in 5.0 mi SW 13.8 mph 23.0 mph N/A   Overcast
5:35 AM 28.4 °F 18.5 °F 19.4 °F 69% 29.90 in 7.0 mi SW 11.5 mph - N/A   Overcast
5:55 AM 28.4 °F 18.5 °F 19.4 °F 69% 29.90 in 10.0 mi SW 11.5 mph 20.7 mph N/A   Overcast
6:15 AM 26.6 °F 16.2 °F 21.2 °F 80% 29.91 in 6.0 mi SSW 11.5 mph - N/A   Overcast
6:35 AM 26.6 °F 16.8 °F 21.2 °F 80% 29.92 in 3.0 mi SW 10.4 mph 16.1 mph N/A   Overcast
6:53 AM 21.2 °F 9.5 °F 21.2 °F 100% 29.92 in 2.0 mi SSW 11.5 mph 17.3 mph N/A Snow Light Snow
7:51 AM 26.6 °F 16.2 °F 19.4 °F 74% 29.93 in 4.0 mi SW 11.5 mph - N/A Snow Light Snow
8:55 AM 26.6 °F 17.5 °F 19.4 °F 74% 29.94 in 6.0 mi SSW 9.2 mph 17.3 mph N/A Snow Light Snow
9:32 AM 26.6 °F 15.7 °F 17.6 °F 69% 29.95 in 10.0 mi SW 12.7 mph 19.6 mph N/A   Overcast
9:51 AM 26.6 °F 18.2 °F 17.6 °F 69% 29.96 in 10.0 mi NNW 8.1 mph - N/A   Overcast
10:53 AM 26.6 °F 16.8 °F 17.6 °F 69% 29.98 in 10.0 mi SSW 10.4 mph 16.1 mph N/A Snow Snow
11:53 AM 26.6 °F 16.8 °F 19.4 °F 74% 29.96 in 8.0 mi SW 10.4 mph - N/A Snow Snow
12:53 PM 26.6 °F 15.7 °F 19.4 °F 74% 29.95 in 10.0 mi SSW 12.7 mph - N/A   Mostly Cloudy
1:56 PM 26.6 °F 16.2 °F 21.2 °F 80% 29.93 in 10.0 mi South 11.5 mph - N/A Snow Snow
2:54 PM 28.4 °F 19.7 °F 17.6 °F 64% 29.92 in 10.0 mi SSW 9.2 mph - N/A   Overcast
3:51 PM 26.6 °F 14.3 °F 19.4 °F 74% 29.90 in 8.0 mi South 16.1 mph - N/A Snow Snow
4:51 PM 24.8 °F 13.4 °F 23.0 °F 93% 29.89 in 6.0 mi South 12.7 mph - N/A Snow Light Snow
5:53 PM 24.8 °F 14.0 °F 21.2 °F 86% 29.87 in 10.0 mi South 11.5 mph - N/A Snow Snow
6:53 PM 24.8 °F 11.1 °F 21.2 °F 86% 29.86 in 5.0 mi South 18.4 mph 24.2 mph N/A Snow Light Snow
7:53 PM 24.8 °F 12.4 °F 23.0 °F 93% 29.85 in 5.0 mi SSE 15.0 mph - N/A Snow Light Snow
8:51 PM 24.8 °F 11.5 °F 23.0 °F 93% 29.82 in 2.5 mi SSE 17.3 mph 21.9 mph N/A Snow Light Snow
8:55 PM 24.8 °F 11.1 °F 23.0 °F 93% 29.82 in 2.5 mi South 18.4 mph 21.9 mph N/A   Overcast
9:15 PM 24.8 °F 11.5 °F 23.0 °F 93% 29.81 in 4.0 mi South 17.3 mph - N/A   Overcast
9:35 PM 24.8 °F 10.3 °F 23.0 °F 93% 29.80 in 2.5 mi South 20.7 mph 24.2 mph N/A   Overcast
10:15 PM 24.8 °F 10.7 °F 23.0 °F 93% 29.79 in 2.0 mi South 19.6 mph 25.3 mph N/A   Overcast
10:35 PM 24.8 °F 11.5 °F 23.0 °F 93% 29.79 in 1.5 mi South 17.3 mph 24.2 mph N/A   Overcast
10:55 PM 24.8 °F 11.9 °F 23.0 °F 93% 29.77 in 1.5 mi South 16.1 mph 25.3 mph N/A   Overcast
11:35 PM 24.8 °F 12.4 °F 23.0 °F 93% 29.76 in 1.5 mi South 15.0 mph - N/A   Overcast
11:55 PM 24.8 °F 13.4 °F 24.8 °F 100% 29.74 in 1.8 mi SSE 12.7 mph - N/A   Overcast